GW5126 Weather Reports


time (UTC)temp
F
wind
direction
speed
knots
gust
knots
rain 1hr
in
rain 24hr
in
rain mn
in
humidity
%
barometer
mb
20260507022949 54 356 0.0 0.9 0.00 0.00 0.00 90 1013.3
20260507022447 54 317 0.9 0.9 0.00 0.00 0.00 90 1013.2
20260507021942 54 328 0.0 0.9 0.00 0.00 0.00 90 1013.2
20260507021437 54 324 0.0 0.9 0.00 0.00 0.00 90 1013.0
20260507020935 54 352 0.9 0.9 0.00 0.00 0.00 90 1013.0
20260507020432 54 352 0.0 0.9 0.00 0.00 0.00 89 1013.0
20260507015929 54 329 0.0 0.0 0.00 0.00 0.00 89 1013.0
20260507015427 54 329 0.0 0.0 0.00 0.00 0.00 89 1012.9
20260507014924 54 329 0.0 0.0 0.00 0.00 0.00 89 1012.9
20260507014420 54 329 0.0 0.0 0.00 0.00 0.00 89 1012.6
20260507013916 54 329 0.0 0.0 0.00 0.00 0.00 89 1012.5
20260507013414 54 329 0.0 0.0 0.00 0.00 0.00 89 1012.7
20260507012911 54 329 0.0 0.0 0.00 0.00 0.00 89 1012.8
20260507012408 54 328 0.0 0.0 0.00 0.00 0.00 88 1012.5
20260507011904 55 328 0.0 0.0 0.00 0.00 0.00 88 1012.4
20260507011401 55 328 0.0 0.0 0.00 0.00 0.00 88 1012.5
20260507010901 55 328 0.0 0.0 0.00 0.00 0.00 87 1012.3
20260507010357 55 328 0.0 0.0 0.00 0.00 0.00 87 1012.1
20260507005854 55 328 0.0 0.0 0.00 0.00 0.00 87 1012.5
20260507005351 55 358 0.0 0.0 0.00 0.00 0.00 86 1012.6
20260507004848 55 358 0.0 0.0 0.00 0.00 0.00 86 1012.3
20260507004345 55 358 0.0 0.0 0.00 0.00 0.00 86 1012.2
20260507003842 55 358 0.0 0.0 0.00 0.00 0.00 85 1012.2
20260507003337 55 358 0.0 0.0 0.00 0.00 0.00 85 1012.0
20260507002832 56 358 0.0 0.0 0.00 0.00 0.00 84 1012.1
20260507002329 56 358 0.0 0.0 0.00 0.00 0.00 83 1012.0
20260507001826 56 358 0.0 0.0 0.00 0.00 0.00 83 1012.1
20260507001323 56 358 0.0 0.0 0.00 0.00 0.00 83 1011.9
20260507000819 56 358 0.0 0.0 0.00 0.00 0.00 83 1012.1
20260507000315 56 358 0.0 0.9 0.00 0.00 0.00 83 1012.1
20260506235812 56 357 0.0 0.9 0.00 0.00 0.00 83 1012.0
20260506235308 56 345 1.7 2.6 0.00 0.00 0.00 82 1011.8
20260506234805 56 50 0.0 0.9 0.00 0.00 0.00 82 1012.0
20260506234302 57 106 0.9 0.9 0.00 0.00 0.00 80 1012.1
20260506233800 57 14 0.0 0.0 0.00 0.00 0.00 79 1012.5
20260506233256 57 1 0.0 0.0 0.00 0.00 0.00 78 1012.4
20260506232753 57 1 0.0 0.0 0.00 0.00 0.00 76 1012.5
20260506232253 57 0 0.0 0.9 0.00 0.00 0.00 76 1012.3
20260506231751 57 63 0.9 0.9 0.00 0.00 0.00 76 1012.3
20260506231249 57 67 0.0 0.9 0.00 0.00 0.00 75 1012.3
20260506230745 58 29 0.0 0.9 0.00 0.00 0.00 74 1012.3
20260506230242 58 72 0.0 0.0 0.00 0.00 0.00 75 1012.2
20260506225739 58 68 0.0 0.0 0.00 0.00 0.00 73 1012.1
20260506225236 58 59 0.0 0.9 0.00 0.00 0.00 75 1012.0
20260506224732 58 134 0.0 0.0 0.00 0.00 0.00 73 1012.3
20260506224230 58 118 0.9 0.9 0.00 0.00 0.00 74 1012.3
20260506223726 58 82 0.0 0.0 0.00 0.00 0.00 71 1012.0
20260506223221 58 63 0.9 1.7 0.00 0.00 0.00 71 1012.0
20260506222719 58 81 0.9 0.9 0.00 0.00 0.00 72 1011.8
20260506222215 58 50 0.0 0.9 0.00 0.00 0.00 72 1012.0
20260506221713 58 49 0.9 1.7 0.00 0.00 0.00 72 1011.8
20260506221211 58 32 0.0 1.7 0.00 0.00 0.00 72 1011.8
20260506220708 58 21 1.7 1.7 0.00 0.00 0.00 70 1011.7
20260506220208 58 13 0.0 0.9 0.00 0.00 0.00 72 1011.8
20260506215705 58 356 0.9 1.7 0.00 0.00 0.00 69 1011.6
20260506215200 59 308 0.0 0.0 0.00 0.00 0.00 71 1011.7
20260506214657 58 306 0.0 0.0 0.00 0.00 0.00 69 1011.8
20260506214154 58 24 0.0 0.9 0.00 0.00 0.00 67 1011.9
20260506213653 58 22 0.9 1.7 0.00 0.00 0.00 67 1011.8
20260506213150 59 335 1.7 1.7 0.00 0.00 0.00 66 1011.7
20260506212648 60 274 2.6 3.5 0.00 0.00 0.00 66 1011.7
20260506212148 60 33 0.0 0.0 0.00 0.00 0.00 68 1011.3
20260506211643 60 116 0.9 1.7 0.00 0.00 0.00 69 1011.4
20260506211140 60 256 0.0 0.9 0.00 0.00 0.00 68 1011.4
20260506210637 60 266 0.9 1.7 0.00 0.00 0.00 69 1011.5
20260506210134 59 118 0.9 1.7 0.00 0.00 0.00 73 1011.4
20260506205631 59 349 0.0 5.2 0.00 0.00 0.00 69 1011.3
20260506205125 58 263 0.9 2.6 0.00 0.00 0.00 69 1011.0
20260506204624 58 327 1.7 2.6 0.00 0.00 0.00 70 1011.3
20260506204120 58 6 0.9 0.9 0.00 0.00 0.00 73 1011.3
20260506203619 58 53 1.7 1.7 0.00 0.00 0.00 72 1011.1
20260506203115 58 317 0.9 1.7 0.00 0.00 0.00 74 1011.0
20260506202613 57 14 0.9 1.7 0.00 0.00 0.00 74 1010.8
20260506202109 57 50 1.7 6.1 0.00 0.00 0.00 74 1010.9
20260506201607 58 351 2.6 3.5 0.00 0.00 0.00 72 1010.8
20260506201103 58 28 0.9 2.6 0.00 0.00 0.00 72 1010.9
20260506200559 59 29 0.0 2.6 0.00 0.00 0.00 71 1011.0
20260506200056 59 121 1.7 2.6 0.00 0.00 0.00 70 1010.9
20260506195553 59 12 0.0 1.7 0.00 0.00 0.00 70 1010.8
20260506195049 59 129 0.9 1.7 0.00 0.00 0.00 71 1011.0
20260506194547 58 329 1.7 3.5 0.00 0.00 0.00 75 1011.0
20260506194043 58 20 5.2 7.0 0.00 0.00 0.00 74 1011.1
20260506193541 58 50 0.0 6.1 0.00 0.00 0.00 74 1011.0
20260506193038 59 320 2.6 2.6 0.00 0.00 0.00 72 1011.0
20260506192535 58 195 0.9 1.7 0.00 0.00 0.00 74 1010.9
20260506192030 58 334 1.7 3.5 0.00 0.00 0.00 73 1011.0
20260506191527 58 47 3.5 6.1 0.00 0.00 0.00 73 1010.9
20260506191023 59 354 2.6 5.2 0.00 0.00 0.00 72 1010.9
20260506190521 59 305 1.7 2.6 0.00 0.00 0.00 73 1011.0
20260506190019 58 333 0.0 1.7 0.00 0.00 0.00 75 1011.0
20260506185515 58 309 1.7 5.2 0.00 0.00 0.00 76 1011.0
20260506185011 58 221 0.9 3.5 0.00 0.00 0.00 75 1011.0
20260506184509 58 184 0.9 1.7 0.00 0.00 0.00 76 1010.9
20260506184006 57 344 3.5 5.2 0.00 0.00 0.00 78 1011.0
20260506183501 56 289 2.6 5.2 0.00 0.00 0.00 79 1011.1
20260506182959 56 280 0.9 2.6 0.00 0.00 0.00 78 1011.2
20260506182455 56 20 0.9 1.7 0.00 0.00 0.00 79 1011.2
20260506181953 56 357 1.7 3.5 0.00 0.00 0.00 80 1011.4
20260506181451 56 13 1.7 1.7 0.00 0.00 0.00 81 1011.3
20260506180947 55 34 1.7 2.6 0.00 0.00 0.00 80 1011.3
20260506180444 55 339 2.6 5.2 0.00 0.00 0.00 82 1011.3
20260506175940 55 344 3.5 5.2 0.00 0.00 0.00 82 1011.2
20260506175437 55 37 1.7 2.6 0.00 0.00 0.00 82 1011.1
20260506174934 56 47 3.5 3.5 0.00 0.00 0.00 81 1011.1
20260506174433 56 328 2.6 5.2 0.00 0.00 0.00 82 1011.1
20260506173929 55 38 1.7 2.6 0.00 0.00 0.00 82 1011.0
20260506173426 55 27 0.9 2.6 0.00 0.00 0.00 84 1011.1
20260506172922 54 331 4.3 6.1 0.00 0.00 0.00 85 1011.1
20260506172420 54 39 1.7 5.2 0.00 0.00 0.00 85 1011.1
20260506171916 54 303 2.6 7.0 0.00 0.00 0.00 85 1011.0
20260506171414 54 278 0.9 2.6 0.00 0.00 0.00 85 1011.0
20260506170912 54 305 0.0 3.5 0.00 0.00 0.00 85 1011.3
20260506170407 54 358 1.7 3.5 0.00 0.00 0.00 85 1011.0
20260506165907 54 356 1.7 7.0 0.00 0.00 0.00 86 1011.0
20260506165404 54 291 2.6 6.1 0.00 0.00 0.00 86 1011.1
20260506164900 54 212 0.9 1.7 0.00 0.00 0.00 86 1011.1
20260506164357 54 35 2.6 6.1 0.00 0.00 0.00 86 1011.2
20260506163855 54 23 2.6 7.0 0.00 0.00 0.00 86 1011.0
20260506163349 54 37 0.0 3.5 0.00 0.00 0.00 87 1011.0
20260506162844 54 325 0.9 2.6 0.00 0.00 0.00 87 1010.9
20260506162343 54 49 1.7 1.7 0.00 0.00 0.00 87 1010.9
20260506161840 54 345 0.0 1.7 0.00 0.00 0.00 88 1010.8
20260506161337 54 29 0.9 2.6 0.00 0.00 0.00 88 1010.7
20260506160835 54 348 1.7 2.6 0.00 0.00 0.00 89 1010.5
20260506160331 54 18 0.9 3.5 0.00 0.00 0.00 90 1010.5
20260506155830 54 300 3.5 5.2 0.00 0.00 0.00 90 1010.4
20260506155327 54 20 0.9 2.6 0.00 0.00 0.00 91 1010.3
20260506153439 54 40 0.0 0.0 0.00 0.00 0.00 92 1009.8
20260506152936 54 108 0.0 0.0 0.00 0.00 0.00 91 1009.8
20260506152433 53 149 0.9 1.7 0.00 0.00 0.00 91 1009.6
20260506151931 53 52 0.0 0.0 0.00 0.00 0.00 92 1009.8
20260506151428 53 348 0.9 1.7 0.00 0.00 0.00 92 1009.7
20260506150926 53 334 0.9 0.9 0.00 0.00 0.00 92 1009.7
20260506150422 52 355 0.9 2.6 0.00 0.00 0.00 91 1009.7
20260506145919 52 326 2.6 5.2 0.00 0.00 0.00 91 1009.6
20260506145415 52 311 1.7 2.6 0.00 0.00 0.00 91 1009.6
20260506144912 52 284 1.7 6.1 0.00 0.00 0.00 91 1009.7
20260506144408 52 282 1.7 2.6 0.00 0.00 0.00 91 1009.5
20260506143908 52 320 2.6 5.2 0.00 0.00 0.00 91 1009.4
20260506143404 53 81 3.5 3.5 0.00 0.00 0.00 91 1009.5
20260506142902 53 5 1.7 9.6 0.00 0.00 0.00 91 1009.3
20260506142400 53 12 3.5 7.8 0.00 0.00 0.00 92 1008.9
20260506141858 54 319 7.0 8.7 0.00 0.00 0.00 92 1008.7
20260506141355 55 38 1.7 3.5 0.00 0.00 0.00 92 1008.5
20260506140854 55 350 4.3 5.2 0.00 0.00 0.00 93 1008.2
20260506140350 55 302 10.4 12.2 0.00 0.00 0.00 93 1007.9
20260506135847 59 290 6.1 11.3 0.00 0.00 0.00 94 1007.9
20260506135344 59 60 0.0 1.7 0.00 0.00 0.00 94 1007.8
20260506134840 59 33 0.9 0.9 0.00 0.00 0.00 94 1007.5
20260506134337 59 134 0.0 0.9 0.00 0.00 0.00 94 1007.2
20260506133834 59 106 0.0 0.0 0.00 0.00 0.00 94 1007.2
20260506133331 59 111 0.0 0.9 0.00 0.00 0.00 94 1007.1
20260506132827 59 230 0.0 3.5 0.00 0.00 0.00 94 1007.3
20260506132324 59 247 1.7 1.7 0.00 0.00 0.00 94 1007.1
20260506131822 59 152 3.5 5.2 0.00 0.00 0.00 94 1006.9
20260506131318 59 280 0.0 0.9 0.00 0.00 0.00 94 1007.2
20260506130816 58 169 0.9 2.6 0.00 0.00 0.00 94 1007.1
20260506130312 58 128 0.0 1.7 0.00 0.00 0.00 94 1007.1
20260506125810 58 130 0.0 1.7 0.00 0.00 0.00 94 1006.8
20260506125308 58 274 0.0 0.9 0.00 0.00 0.00 94 1007.0
20260506124807 58 276 0.9 1.7 0.00 0.00 0.00 94 1007.0
20260506124303 58 318 0.9 1.7 0.00 0.00 0.00 94 1007.0
20260506123801 58 182 0.9 1.7 0.00 0.00 0.00 94 1006.7
20260506123259 58 177 1.7 1.7 0.00 0.00 0.00 94 1007.0
20260506122755 58 193 0.0 1.7 0.00 0.00 0.00 94 1006.8
20260506122253 58 218 0.9 1.7 0.00 0.00 0.00 94 1006.9
20260506121751 58 233 0.0 0.9 0.00 0.00 0.00 94 1006.9
20260506121248 58 230 1.7 2.6 0.00 0.00 0.00 94 1007.2
20260506120745 58 180 0.0 0.0 0.00 0.00 0.00 94 1007.3
20260506120243 58 197 0.9 0.9 0.00 0.00 0.00 94 1007.1
20260506115740 58 209 0.0 0.0 0.00 0.00 0.00 94 1006.9
20260506115238 58 150 0.0 0.9 0.00 0.00 0.00 94 1007.0
20260506114736 58 139 0.9 1.7 0.00 0.00 0.00 94 1006.9
20260506114233 58 220 0.0 0.0 0.00 0.00 0.00 94 1006.9
20260506113731 58 23 0.9 0.9 0.00 0.00 0.00 94 1006.9
20260506113228 58 197 0.9 0.9 0.00 0.00 0.00 94 1007.1
20260506112724 58 216 0.0 1.7 0.00 0.00 0.00 94 1006.6
20260506112222 58 252 0.9 1.7 0.00 0.00 0.00 93 1006.7
20260506111720 58 282 0.9 1.7 0.00 0.00 0.00 93 1006.9
20260506111218 58 168 0.9 1.7 0.00 0.00 0.00 93 1006.7
20260506110714 58 205 0.9 0.9 0.00 0.00 0.00 93 1006.7
20260506110212 58 219 0.9 1.7 0.00 0.00 0.00 93 1006.7
20260506105708 58 144 0.9 2.6 0.00 0.00 0.00 93 1006.3
20260506105205 58 162 0.0 0.9 0.00 0.00 0.00 93 1006.6
20260506104703 58 195 0.9 0.9 0.00 0.00 0.00 93 1006.7
20260506104201 58 214 0.0 0.0 0.00 0.00 0.00 93 1006.7
20260506103657 58 214 0.0 0.0 0.00 0.00 0.00 93 1006.6
20260506103154 58 216 0.0 0.0 0.00 0.00 0.00 93 1006.4
20260506102653 58 215 0.9 0.9 0.00 0.00 0.00 93 1006.4
20260506102150 58 216 0.0 0.0 0.00 0.00 0.00 93 1006.7
20260506101646 58 217 0.0 1.7 0.00 0.00 0.00 93 1006.6
20260506101143 58 192 1.7 1.7 0.00 0.00 0.00 93 1006.7
20260506100642 58 223 0.0 3.5 0.00 0.00 0.00 93 1006.8
20260506100139 58 163 1.7 2.6 0.00 0.00 0.00 93 1006.8
20260506095638 58 232 0.0 0.9 0.00 0.00 0.00 93 1007.0
20260506095134 58 129 1.7 2.6 0.00 0.00 0.00 93 1006.8
20260506094632 58 191 0.0 2.6 0.00 0.00 0.00 92 1006.7
20260506094129 58 173 1.7 1.7 0.00 0.00 0.00 92 1006.8
20260506093628 58 204 0.0 0.9 0.00 0.00 0.00 92 1006.8
20260506093124 58 172 1.7 3.5 0.00 0.00 0.00 92 1006.8
20260506092622 58 140 1.7 6.1 0.00 0.00 0.00 92 1006.8
20260506092119 58 154 1.7 2.6 0.00 0.00 0.00 92 1006.9
20260506091617 58 192 1.7 2.6 0.00 0.00 0.00 92 1007.0
20260506091114 58 174 0.0 1.7 0.00 0.00 0.00 91 1007.0
20260506090613 58 179 0.9 1.7 0.00 0.00 0.00 91 1007.1
20260506090108 58 176 2.6 3.5 0.00 0.00 0.00 91 1007.0
20260506085605 58 184 0.0 1.7 0.00 0.00 0.00 91 1007.0
20260506085102 58 208 2.6 3.5 0.00 0.00 0.00 91 1006.9
20260506084559 58 189 3.5 6.1 0.00 0.00 0.00 91 1007.0
20260506084055 58 172 1.7 2.6 0.00 0.00 0.00 91 1007.0
20260506083552 58 168 0.9 2.6 0.00 0.00 0.00 91 1007.1
20260506083049 58 188 0.9 1.7 0.00 0.00 0.00 91 1007.2
20260506082546 58 193 0.9 2.6 0.00 0.00 0.00 91 1007.0
20260506082042 58 163 0.0 1.7 0.00 0.00 0.00 91 1007.1
20260506081540 58 108 1.7 2.6 0.00 0.00 0.00 91 1007.1
20260506081037 58 132 0.0 0.0 0.00 0.00 0.00 90 1007.6
20260506080535 58 132 0.0 0.0 0.00 0.00 0.00 90 1007.3
20260506073518 59 131 0.9 0.9 0.00 0.00 0.00 88 1007.0
20260506073015 58 348 0.0 0.0 0.00 0.00 0.00 89 1007.3
20260506072512 58 156 0.9 1.7 0.00 0.00 0.00 90 1007.3
20260506072010 58 17 0.9 0.9 0.00 0.00 0.00 90 1007.2
20260506071508 58 9 1.7 2.6 0.00 0.00 0.00 91 1007.1
20260506071005 58 64 0.9 1.7 0.00 0.00 0.00 91 1006.9
20260506070502 58 319 0.9 1.7 0.00 0.00 0.00 91 1006.6
20260506062439 58 94 0.0 0.9 0.00 0.00 0.00 90 1006.8
20260506061935 58 95 0.0 0.0 0.00 0.00 0.00 90 1006.9
20260506061432 58 95 0.9 1.7 0.00 0.00 0.00 90 1007.0
20260506060930 58 50 0.0 0.0 0.00 0.00 0.00 90 1007.3
20260506060428 58 359 0.0 0.9 0.00 0.00 0.00 90 1007.3
20260506051400 58 207 0.9 1.7 0.00 0.00 0.00 89 1008.1
20260506050857 58 324 0.0 0.0 0.00 0.00 0.00 88 1008.5
20260506050354 58 23 0.0 0.0 0.00 0.00 0.00 88 1008.5
20260506044844 58 4 0.9 0.9 0.00 0.00 0.00 87 1008.1
20260506044343 58 91 0.0 0.9 0.00 0.00 0.00 87 1008.1
20260506043839 59 92 0.0 0.0 0.00 0.00 0.00 86 1008.2
20260506043337 58 92 0.0 0.0 0.00 0.00 0.00 86 1008.1
20260506042835 58 29 0.0 0.9 0.00 0.00 0.00 86 1008.1
20260506042334 59 28 0.0 0.0 0.00 0.00 0.00 86 1008.2
20260506041832 59 27 0.0 0.0 0.00 0.00 0.00 86 1008.2
20260506041329 59 28 0.0 0.9 0.00 0.00 0.00 85 1008.3
20260506040826 59 26 0.0 0.0 0.00 0.00 0.00 85 1008.3
20260506040323 59 23 0.0 0.9 0.00 0.00 0.00 85 1008.3
20260506035819 59 357 0.9 0.9 0.00 0.01 0.01 84 1008.4
20260506035317 59 34 0.9 0.9 0.07 0.01 0.01 84 1008.5
20260506034814 60 351 0.0 0.0 0.07 0.01 0.01 83 1008.5
20260506034311 60 352 0.0 0.9 0.00 0.00 0.00 82 1008.5
20260506033808 60 16 0.9 0.9 0.00 0.00 0.00 80 1008.4
20260506033305 61 5 0.9 1.7 0.00 0.00 0.00 77 1008.2
20260506032802 61 68 0.0 0.9 0.00 0.00 0.00 78 1008.1
20260506032259 62 9 0.0 0.9 0.00 0.00 0.00 76 1008.2
20260506031755 63 346 0.9 1.7 0.00 0.00 0.00 73 1008.3
20260506031252 65 37 0.9 1.7 0.00 0.00 0.00 63 1008.5
20260506030751 64 319 2.6 2.6 0.00 0.00 0.00 61 1008.7
20260506030248 64 358 0.9 1.7 0.00 0.00 0.00 65 1008.5
20260506025745 64 8 0.0 0.9 0.00 0.00 0.00 64 1008.4
20260506025241 65 128 0.9 0.9 0.00 0.00 0.00 64 1008.2
20260506024738 65 246 0.0 0.9 0.00 0.00 0.00 59 1008.2
20260506024235 65 207 0.0 0.0 0.00 0.00 0.00 62 1008.0
20260506023731 65 148 0.0 1.7 0.00 0.00 0.00 64 1007.9